TimeCST,TemperatureF,Dew PointF,Humidity,Sea Level PressureIn,VisibilityMPH,Wind Direction,Wind SpeedMPH,Gust SpeedMPH,PrecipitationIn,Events,Conditions,WindDirDegrees,DateUTC
12:53 AM,12.9,7.0,77,30.25,10.0,North,13.8,-,N/A,,Overcast,350,2014-01-02 06:53:00
1:53 AM,12.0,6.1,77,30.24,10.0,North,12.7,-,N/A,,Overcast,360,2014-01-02 07:53:00
2:53 AM,10.9,5.0,77,30.26,10.0,NNW,8.1,-,N/A,,Overcast,340,2014-01-02 08:53:00
3:53 AM,10.9,5.0,77,30.27,10.0,North,12.7,20.7,N/A,,Overcast,350,2014-01-02 09:53:00
4:53 AM,10.9,5.0,77,30.28,10.0,NNW,12.7,-,N/A,,Overcast,340,2014-01-02 10:53:00
5:53 AM,10.9,3.9,73,30.29,10.0,NNW,12.7,-,N/A,,Overcast,340,2014-01-02 11:53:00
6:53 AM,10.0,3.9,76,30.31,10.0,NW,11.5,-,N/A,,Overcast,310,2014-01-02 12:53:00
7:53 AM,9.0,3.0,77,30.32,10.0,NNW,10.4,-,N/A,,Overcast,330,2014-01-02 13:53:00
8:53 AM,10.0,3.0,73,30.34,10.0,NNW,12.7,-,N/A,,Overcast,330,2014-01-02 14:53:00
9:53 AM,10.9,3.9,73,30.36,9.0,NNW,13.8,-,N/A,,Overcast,330,2014-01-02 15:53:00
10:53 AM,12.0,5.0,73,30.38,10.0,NW,11.5,-,N/A,,Overcast,320,2014-01-02 16:53:00
11:53 AM,12.9,5.0,71,30.36,10.0,NNW,10.4,-,N/A,,Clear,330,2014-01-02 17:53:00
12:53 PM,12.0,3.9,70,30.36,10.0,NNW,13.8,-,N/A,,Partly Cloudy,340,2014-01-02 18:53:00
1:22 PM,12.9,5.0,71,30.33,10.0,NNW,13.8,-,N/A,,Mostly Cloudy,330,2014-01-02 19:22:00
1:53 PM,12.9,5.0,71,30.38,10.0,NNW,13.8,-,N/A,,Partly Cloudy,330,2014-01-02 19:53:00
2:53 PM,12.0,3.0,67,30.41,10.0,NW,13.8,-,N/A,,Partly Cloudy,320,2014-01-02 20:53:00
3:53 PM,10.9,1.9,67,30.43,10.0,NNW,9.2,-,N/A,,Clear,330,2014-01-02 21:53:00
4:53 PM,9.0,1.0,70,30.45,10.0,NW,9.2,-,N/A,,Clear,320,2014-01-02 22:53:00
5:53 PM,6.1,-0.0,76,30.48,10.0,NW,4.6,-,N/A,,Clear,320,2014-01-02 23:53:00
6:53 PM,5.0,-0.9,76,30.49,10.0,NW,8.1,-,N/A,,Clear,320,2014-01-03 00:53:00
7:53 PM,3.0,-2.9,76,30.50,10.0,NW,8.1,-,N/A,,Clear,320,2014-01-03 01:53:00
8:53 PM,1.9,-4.0,76,30.51,10.0,NW,6.9,-,N/A,,Clear,320,2014-01-03 02:53:00
9:53 PM,1.0,-5.1,75,30.51,10.0,NW,5.8,-,N/A,,Clear,320,2014-01-03 03:53:00
10:53 PM,-0.0,-6.0,76,30.51,10.0,NW,5.8,-,N/A,,Clear,320,2014-01-03 04:53:00
11:53 PM,-0.9,-6.0,79,30.50,10.0,Calm,Calm,-,N/A,,Clear,0,2014-01-03 05:53:00